Time,TemperatureF,DewpointF,PressureIn,WindDirection,WindDirectionDegrees,WindSpeedMPH,WindSpeedGustMPH,Humidity,HourlyPrecipIn,Conditions,Clouds,dailyrainin,SolarRadiationWatts/m^2,SoftwareType,DateUTC
2013-01-10 00:04:00,35.7,27.0,30.41,West,279,7.0,13.0,71,0.00,,,0.01,0,weatherlink.com 1.10,2013-01-10 05:04:00,
2013-01-10 00:19:00,35.7,27.0,30.41,West,273,8.0,14.0,72,0.00,,,0.01,0,weatherlink.com 1.10,2013-01-10 05:19:00,
2013-01-10 01:03:00,35.6,28.0,30.44,WNW,290,9.0,18.0,74,0.00,,,0.01,0,weatherlink.com 1.10,2013-01-10 06:03:00,
2013-01-10 01:19:00,35.4,28.0,30.44,West,280,7.0,16.0,75,0.00,,,0.01,0,weatherlink.com 1.10,2013-01-10 06:19:00,
2013-01-10 01:34:00,35.5,28.0,30.45,NW,305,8.0,14.0,75,0.00,,,0.01,0,weatherlink.com 1.10,2013-01-10 06:34:00,
2013-01-10 01:49:00,35.4,28.0,30.45,WNW,292,6.0,14.0,75,0.00,,,0.01,0,weatherlink.com 1.10,2013-01-10 06:49:00,
2013-01-10 02:04:00,35.5,28.0,30.45,NW,312,10.0,14.0,75,0.00,,,0.01,0,weatherlink.com 1.10,2013-01-10 07:04:00,
2013-01-10 02:19:00,35.5,28.0,30.45,West,281,9.0,16.0,75,0.00,,,0.01,0,weatherlink.com 1.10,2013-01-10 07:19:00,
2013-01-10 02:34:00,35.4,28.0,30.45,NW,306,5.0,12.0,75,0.00,,,0.01,0,weatherlink.com 1.10,2013-01-10 07:34:00,
2013-01-10 02:49:00,35.5,28.0,30.46,WNW,302,9.0,15.0,73,0.00,,,0.01,0,weatherlink.com 1.10,2013-01-10 07:49:00,
2013-01-10 03:04:00,35.2,27.0,30.46,NW,317,8.0,13.0,72,0.00,,,0.01,0,weatherlink.com 1.10,2013-01-10 08:04:00,
2013-01-10 03:19:00,35.1,27.0,30.45,NW,321,7.0,15.0,72,0.00,,,0.00,0,weatherlink.com 1.10,2013-01-10 08:19:00,
2013-01-10 03:34:00,34.4,26.0,30.44,NW,322,5.0,11.0,72,0.00,,,0.00,0,weatherlink.com 1.10,2013-01-10 08:34:00,
2013-01-10 03:49:00,33.9,26.0,30.44,North,360,0.0,5.0,73,0.00,,,0.00,0,weatherlink.com 1.10,2013-01-10 08:49:00,
2013-01-10 04:04:00,33.3,26.0,30.44,NW,320,10.0,10.0,74,0.00,,,0.00,0,weatherlink.com 1.10,2013-01-10 09:04:00,
2013-01-10 04:19:00,32.6,25.0,30.45,NW,315,2.0,4.0,74,0.00,,,0.00,0,weatherlink.com 1.10,2013-01-10 09:19:00,
2013-01-10 04:34:00,31.5,24.0,30.45,NNW,327,0.0,2.0,75,0.00,,,0.00,0,weatherlink.com 1.10,2013-01-10 09:34:00,
2013-01-10 04:49:00,29.8,23.0,30.47,NNW,327,0.0,0.0,76,0.00,,,0.00,0,weatherlink.com 1.10,2013-01-10 09:49:00,
2013-01-10 05:04:00,28.3,22.0,30.48,NW,326,0.0,1.0,78,0.00,,,0.00,0,weatherlink.com 1.10,2013-01-10 10:04:00,
2013-01-10 05:19:00,27.2,22.0,30.48,North,355,0.0,1.0,82,0.00,,,0.00,0,weatherlink.com 1.10,2013-01-10 10:19:00,
2013-01-10 05:34:00,26.9,22.0,30.50,North,355,0.0,0.0,83,0.00,,,0.00,0,weatherlink.com 1.10,2013-01-10 10:34:00,
2013-01-10 05:49:00,26.6,22.0,30.52,North,355,0.0,0.0,84,0.00,,,0.00,0,weatherlink.com 1.10,2013-01-10 10:49:00,
2013-01-10 06:04:00,26.9,23.0,30.53,North,355,0.0,0.0,86,0.00,,,0.00,0,weatherlink.com 1.10,2013-01-10 11:04:00,
2013-01-10 06:19:00,28.3,25.0,30.54,SW,229,2.0,4.0,87,0.00,,,0.00,0,weatherlink.com 1.10,2013-01-10 11:19:00,
2013-01-10 06:34:00,30.2,27.0,30.55,WSW,250,1.0,4.0,88,0.00,,,0.00,0,weatherlink.com 1.10,2013-01-10 11:34:00,
2013-01-10 06:49:00,30.5,27.0,30.56,WSW,250,2.0,4.0,87,0.00,,,0.00,0,weatherlink.com 1.10,2013-01-10 11:49:00,
2013-01-10 07:04:00,30.7,27.0,30.57,West,280,3.0,6.0,87,0.00,,,0.00,0,weatherlink.com 1.10,2013-01-10 12:04:00,
2013-01-10 07:19:00,29.8,26.0,30.57,West,280,3.0,3.0,86,0.00,,,0.00,0,weatherlink.com 1.10,2013-01-10 12:19:00,
2013-01-10 07:34:00,29.9,26.0,30.57,WNW,290,0.0,4.0,86,0.00,,,0.00,0,weatherlink.com 1.10,2013-01-10 12:34:00,
2013-01-10 07:49:00,28.6,25.0,30.58,WNW,290,0.0,0.0,86,0.00,,,0.00,0,weatherlink.com 1.10,2013-01-10 12:49:00,
2013-01-10 08:04:00,27.7,24.0,30.59,WNW,290,0.0,2.0,87,0.00,,,0.00,0,weatherlink.com 1.10,2013-01-10 13:04:00,
2013-01-10 08:19:00,26.6,24.0,30.58,WNW,290,0.0,0.0,88,0.00,,,0.00,5,weatherlink.com 1.10,2013-01-10 13:19:00,
2013-01-10 08:35:00,26.3,24.0,30.58,WNW,290,0.0,1.0,89,0.00,,,0.00,14,weatherlink.com 1.10,2013-01-10 13:35:00,
2013-01-10 08:50:00,25.7,23.0,30.58,WNW,290,0.0,0.0,89,0.00,,,0.00,21,weatherlink.com 1.10,2013-01-10 13:50:00,
2013-01-10 09:05:00,25.9,23.0,30.59,WNW,290,0.0,0.0,89,0.00,,,0.00,26,weatherlink.com 1.10,2013-01-10 14:05:00,
2013-01-10 09:20:00,26.6,24.0,30.59,WNW,290,0.0,1.0,90,0.00,,,0.00,37,weatherlink.com 1.10,2013-01-10 14:20:00,
2013-01-10 09:35:00,26.6,24.0,30.60,WNW,290,0.0,2.0,90,0.00,,,0.00,77,weatherlink.com 1.10,2013-01-10 14:35:00,
2013-01-10 09:50:00,29.4,27.0,30.60,WNW,290,0.0,1.0,90,0.00,,,0.00,134,weatherlink.com 1.10,2013-01-10 14:50:00,
2013-01-10 10:05:00,31.1,27.0,30.60,WNW,290,0.0,2.0,86,0.00,,,0.00,163,weatherlink.com 1.10,2013-01-10 15:05:00,
2013-01-10 10:20:00,33.7,28.0,30.61,WNW,290,0.0,3.0,80,0.00,,,0.00,200,weatherlink.com 1.10,2013-01-10 15:20:00,
2013-01-10 10:35:00,33.9,27.0,30.60,West,278,4.0,5.0,77,0.00,,,0.00,230,weatherlink.com 1.10,2013-01-10 15:35:00,
2013-01-10 10:50:00,35.5,28.0,30.60,WNW,296,2.0,5.0,74,0.00,,,0.00,248,weatherlink.com 1.10,2013-01-10 15:50:00,
2013-01-10 11:05:00,35.3,28.0,30.59,SW,228,0.0,4.0,74,0.00,,,0.00,274,weatherlink.com 1.10,2013-01-10 16:05:00,
2013-01-10 11:20:00,35.6,27.0,30.59,SW,228,4.0,4.0,72,0.00,,,0.00,306,weatherlink.com 1.10,2013-01-10 16:20:00,
2013-01-10 11:35:00,36.2,27.0,30.57,SW,228,2.0,4.0,70,0.00,,,0.00,323,weatherlink.com 1.10,2013-01-10 16:35:00,
2013-01-10 11:50:00,36.6,28.0,30.57,SW,223,0.0,5.0,71,0.00,,,0.00,325,weatherlink.com 1.10,2013-01-10 16:50:00,
2013-01-10 12:05:00,37.8,27.0,30.56,SW,223,2.0,3.0,65,0.00,,,0.00,318,weatherlink.com 1.10,2013-01-10 17:05:00,
2013-01-10 12:20:00,37.1,27.0,30.56,SW,223,3.0,4.0,68,0.00,,,0.00,323,weatherlink.com 1.10,2013-01-10 17:20:00,
2013-01-10 12:35:00,36.1,28.0,30.55,SSE,158,3.0,4.0,73,0.00,,,0.00,325,weatherlink.com 1.10,2013-01-10 17:35:00,
2013-01-10 12:50:00,37.4,27.0,30.54,SSE,158,0.0,3.0,67,0.00,,,0.00,341,weatherlink.com 1.10,2013-01-10 17:50:00,
2013-01-10 13:05:00,36.5,28.0,30.53,SSW,195,0.0,6.0,70,0.00,,,0.00,309,weatherlink.com 1.10,2013-01-10 18:05:00,
2013-01-10 13:20:00,36.5,28.0,30.52,SSE,168,4.0,8.0,70,0.00,,,0.00,315,weatherlink.com 1.10,2013-01-10 18:20:00,
2013-01-10 13:35:00,36.7,28.0,30.51,ESE,103,3.0,7.0,70,0.00,,,0.00,267,weatherlink.com 1.10,2013-01-10 18:35:00,
2013-01-10 13:50:00,36.9,28.0,30.51,SSE,156,3.0,7.0,71,0.00,,,0.00,285,weatherlink.com 1.10,2013-01-10 18:50:00,
2013-01-10 14:05:00,36.5,28.0,30.50,SSE,149,0.0,8.0,72,0.00,,,0.00,257,weatherlink.com 1.10,2013-01-10 19:05:00,
2013-01-10 14:20:00,36.7,29.0,30.51,SSE,150,1.0,7.0,73,0.00,,,0.00,272,weatherlink.com 1.10,2013-01-10 19:20:00,
2013-01-10 14:35:00,36.1,29.0,30.51,South,169,2.0,9.0,74,0.00,,,0.00,186,weatherlink.com 1.10,2013-01-10 19:35:00,
2013-01-10 14:50:00,35.8,29.0,30.51,SE,131,3.0,8.0,75,0.00,,,0.00,195,weatherlink.com 1.10,2013-01-10 19:50:00,
2013-01-10 15:05:00,35.9,29.0,30.51,SE,124,3.0,9.0,77,0.00,,,0.00,160,weatherlink.com 1.10,2013-01-10 20:05:00,
2013-01-10 15:20:00,35.7,30.0,30.52,SSE,152,0.0,9.0,79,0.00,,,0.00,148,weatherlink.com 1.10,2013-01-10 20:20:00,
2013-01-10 15:35:00,35.3,30.0,30.51,ESE,123,0.0,5.0,80,0.00,,,0.00,109,weatherlink.com 1.10,2013-01-10 20:35:00,
2013-01-10 15:50:00,35.4,30.0,30.50,East,88,0.0,5.0,82,0.00,,,0.00,107,weatherlink.com 1.10,2013-01-10 20:50:00,
2013-01-10 16:05:00,35.3,30.0,30.50,ESE,103,0.0,7.0,82,0.00,,,0.00,69,weatherlink.com 1.10,2013-01-10 21:05:00,
2013-01-10 16:20:00,35.0,30.0,30.48,ESE,114,0.0,8.0,82,0.00,,,0.00,47,weatherlink.com 1.10,2013-01-10 21:20:00,
2013-01-10 16:50:00,34.4,30.0,30.47,SE,125,0.0,4.0,83,0.00,,,0.00,14,weatherlink.com 1.10,2013-01-10 21:50:00,
2013-01-10 17:05:00,33.9,30.0,30.48,SE,132,0.0,4.0,84,0.00,,,0.00,0,weatherlink.com 1.10,2013-01-10 22:05:00,
2013-01-10 17:20:00,33.8,30.0,30.47,SSE,165,2.0,4.0,85,0.00,,,0.00,0,weatherlink.com 1.10,2013-01-10 22:20:00,
2013-01-10 17:35:00,33.7,30.0,30.46,SE,129,0.0,4.0,86,0.00,,,0.00,0,weatherlink.com 1.10,2013-01-10 22:35:00,
2013-01-10 17:50:00,33.5,30.0,30.46,ESE,114,2.0,5.0,86,0.00,,,0.00,0,weatherlink.com 1.10,2013-01-10 22:50:00,
2013-01-10 18:05:00,34.0,30.0,30.46,SE,126,1.0,5.0,86,0.00,,,0.00,0,weatherlink.com 1.10,2013-01-10 23:05:00,
2013-01-10 18:20:00,34.1,30.0,30.46,East,88,0.0,7.0,85,0.00,,,0.00,0,weatherlink.com 1.10,2013-01-10 23:20:00,
2013-01-10 18:35:00,34.1,30.0,30.46,ESE,111,2.0,6.0,85,0.00,,,0.00,0,weatherlink.com 1.10,2013-01-10 23:35:00,
2013-01-10 18:50:00,34.4,30.0,30.46,ESE,121,5.0,7.0,85,0.00,,,0.00,0,weatherlink.com 1.10,2013-01-10 23:50:00,
2013-01-10 19:05:00,34.4,31.0,30.45,ESE,105,4.0,6.0,86,0.00,,,0.00,0,weatherlink.com 1.10,2013-01-11 00:05:00,
2013-01-10 19:20:00,34.4,31.0,30.44,ENE,71,2.0,7.0,87,0.00,,,0.00,0,weatherlink.com 1.10,2013-01-11 00:20:00,
2013-01-10 19:35:00,34.4,31.0,30.44,ESE,106,1.0,5.0,87,0.00,,,0.00,0,weatherlink.com 1.10,2013-01-11 00:35:00,
2013-01-10 19:50:00,34.4,31.0,30.43,East,99,2.0,7.0,88,0.00,,,0.00,0,weatherlink.com 1.10,2013-01-11 00:50:00,
2013-01-10 20:05:00,34.4,31.0,30.43,East,84,3.0,7.0,88,0.00,,,0.00,0,weatherlink.com 1.10,2013-01-11 01:05:00,
2013-01-10 20:21:00,34.4,32.0,30.42,SE,137,1.0,8.0,89,0.00,,,0.00,0,weatherlink.com 1.10,2013-01-11 01:21:00,
2013-01-10 20:36:00,34.5,32.0,30.42,SE,137,3.0,9.0,89,0.00,,,0.00,0,weatherlink.com 1.10,2013-01-11 01:36:00,
2013-01-10 20:51:00,34.4,31.0,30.41,SE,132,1.0,8.0,88,0.00,,,0.00,0,weatherlink.com 1.10,2013-01-11 01:51:00,
2013-01-10 21:06:00,34.4,32.0,30.41,SE,146,6.0,10.0,89,0.00,,,0.00,0,weatherlink.com 1.10,2013-01-11 02:06:00,
2013-01-10 21:21:00,34.4,32.0,30.40,SE,129,4.0,10.0,89,0.00,,,0.00,0,weatherlink.com 1.10,2013-01-11 02:21:00,
2013-01-10 21:36:00,34.4,32.0,30.39,ESE,123,2.0,8.0,89,0.00,,,0.00,0,weatherlink.com 1.10,2013-01-11 02:36:00,
2013-01-10 21:51:00,34.3,32.0,30.37,ESE,109,3.0,8.0,90,0.00,,,0.00,0,weatherlink.com 1.10,2013-01-11 02:51:00,
2013-01-10 22:06:00,34.4,32.0,30.36,ESE,110,8.0,10.0,90,0.00,,,0.00,0,weatherlink.com 1.10,2013-01-11 03:06:00,
2013-01-10 22:21:00,34.5,32.0,30.36,East,86,3.0,9.0,90,0.00,,,0.00,0,weatherlink.com 1.10,2013-01-11 03:21:00,
2013-01-10 22:36:00,35.0,32.0,30.34,East,92,2.0,9.0,90,0.00,,,0.00,0,weatherlink.com 1.10,2013-01-11 03:36:00,
2013-01-10 22:51:00,35.0,32.0,30.33,ESE,110,8.0,13.0,90,0.00,,,0.00,0,weatherlink.com 1.10,2013-01-11 03:51:00,
2013-01-10 23:06:00,35.3,33.0,30.32,SE,139,6.0,11.0,90,0.00,,,0.00,0,weatherlink.com 1.10,2013-01-11 04:06:00,
2013-01-10 23:21:00,35.3,33.0,30.32,East,94,3.0,9.0,90,0.00,,,0.00,0,weatherlink.com 1.10,2013-01-11 04:21:00,
2013-01-10 23:36:00,34.9,32.0,30.30,East,82,6.0,9.0,90,0.00,,,0.00,0,weatherlink.com 1.10,2013-01-11 04:36:00,
2013-01-10 23:51:00,34.7,32.0,30.29,SE,135,5.0,12.0,90,0.00,,,0.00,0,weatherlink.com 1.10,2013-01-11 04:51:00,